SCP
0 0 0 0 0 0 0 0 0 0 0 0 0 0 0 0 0 0 0 0 0 0 0 0 0 0 0 0 0 0 0 0 0 0 0 0 0 0 0 0 0 0 0 0 -0
0 0 0 0 0 0 0 0 0 0 0 0 0 0 0 0 0 0 0 0 0 0 0 0 0 0 0 0 0 0 0 0 0 0 0 0 0 0 0 0 0 0 0 0 0
0 0 0 0 0 0 0 0 0 0 0 0 0 -0 0 0 0 0 0 0 0 0 0 0 0 0 0 0 0 0 0 0 0 0 0 0 0 0 0 0 0 0 0 0 0
0 0 0 0 0 0 0 0 0 0 0 0 0 0 0 0 0 0 0 0 0 0 0 0 0 0 0 0 0 0 0 0 0 0 0 0 0 0 0 0 0 0 0 0 0
0 0 0 0 0 0 0 0 0 0 0 0 0 0 0 0 0 0 0 0 0 0 0 0 0 0 0 0 0 0 0 0 0 0 0 0 0 0 0 0 0 0 0 0 0
0 0 0 0 0 0 0 0 0 0 0 0 0 0 0 0 0 0 0 0 0 0 0 0 0 0 0 0 0 0 0 0 0 0 0 0 0 0 0 0 0 0 0 0 0
0 0 0 0 0 0 0 0 -0 0 0 0 0 0 0 0 0 0 0 0 0 0 0 0 0 0 0 0 0 0 0 0 0 0 0 0 0 0 0 0 0 0 0 0 0
0 0 0 0 0 0 0 -0 0 0 0 0 0 0 0 0 0 0 0 0 0 0 0 0 0 0 0 0 0 0 0 0 0 0 0 0 0 0 0 0 0 0 0 0 0
0 0 0 0 0 0 -0 -0 0 0 0 0 0 0 0 0 0 0 0 0 0 0 0 0 0 0 0 0 0 0 0 0 0 0 0 0 0 0 0 0 0 0 0 0 0
0 0 0 0 0 0 -0 -0 0 0 0 0 0 0 0 0 0 0 0 0 0 0 0 0 0 0 0 0 0 0 0 0 0 0 0 0 0 0 0 0 0 0 0 0 0
0 0 0 0 0 0 0 0 0 0 0 0 0 0 0 0 0 0 0 0 0 0 0 0 0 0 0 0 0 0 0 0 0 0 0 0 0 0 0 0 0 0 0 0 0
0 0 0 0 0 0 0 0 0 0 0 0 0 0 0 0 0 0 0 0 0 0 0 0 0 0 0 0 0 0 0 0 0 0 0 0 0 0 0 0 0 0 0 0 0
0 0 0 0 0 0 -0 0 0 0 0 0 0 0 0 0 0 0 0 0 0 0 0 0 0 0 0 0 0 0 0 0 0 0 0 0 0 0 0 0 0 0 0 0 0
0 0 0 0 0 -0 -0 -0 0 0 0 0 0 0 0 0 0 0 0 0 0 0 0 0 0 0 0 0 0 0 0 0 0 0 0 0 0 0 0 0 0 -0 0 0 -0
0 0 0 0 0 -0 -0 0 0 0 0 0 0 0 0 0 0 0 0 0 0 0 0 0 0 0 0 0 0 0 0 0 0 0 0 0 0 -0 0 0 0 0 -0 -0 -0
0 0 0 0 0 -0 0 -0 0 0 0 0 0 0 0 0 0 0 0 0 0 0 0 0 0 0 0 0 0 0 0 0 0 0 0 0 0 -0 0 0 0 0 0 0 0
0 0 0 0 -0 0 -0 0 0 0 0 0 0 0 0 0 0 0 0 0 0 0 0 0 0 0 0 0 0 0 0 0 0 0 0 0 0 0 0 0 0 0 0 0 0
0 0 0 0 0 0 0 0 0 0 0 0 0 0 0 0 0 0 0 0 0 0 0 0 0 0 0 0 0 0 0 0 0 0 0 0 0 0 0 0 0 0 0 0 0
0 0 0 0 0 0 0 0 0 0 0 0 0 0 0 0 0 0 0 0 0 0 0 0 0 0 0 0 0 0 0 0 0 0 0 0 0 0 0 0 0 0 0 0 0
0 0 0 0 0 0 0 -0 0 0 0 0 0 0 0 0 0 0 0 0 0 0 0 0 0 0 0 0 0 0 0 0 0 0 0 0 0 0 0 -0 0 0 0 0 0
0 0 -0 0 0 0 0 -0 0 0 0 0 0 0 0 0 0 0 0 0 0 0 0 0 0 0 0 0 0 0 0 0 0 0 0 0 0 -0 0 0 0 0 0 0 0
0 0 0 0 0 0 0 -0 0 0 0 0 0 0 0 0 0 0 0 0 0 0 0 0 0 0 0 0 0 0 0 0 0 0 0 0 0 0 0 0 0 0 0 0 0
0 0 0 0 0 0 0 0 0 0 0 0 0 0 0 0 0 0 0 0 0 0 0 0 0 0 0 0 0 0 0 0 0 0 0 0 0 0 0 0 0 0 0 0 0
0 0 0 0 0 0 0 0 0 0 0 0 0 0 0 0 0 0 0 0 0 0 0 0 0 0 0 0 0 0 0 0 0 0 0 0 0 0 0 0 0 0 0 0 0
0 0 0 0 0 0 0 0 0 0 0 0 0 0 0 0 0 0 0 0 0 0 0 0 0 0 0 0 0 0 0 0 0 0 0 0 0 0 0 0 0 0 0 -0 0
0 0 0 0 0 0 0 0 0 0 0 0 0 0 0 0 0 0 0 0 0 0 0 0 0 0 0 0 0 0 0 0 0 0 0 0 0 0 0 0 0 0 0 0 0
0 0 0 0 0 0 0 0 0 0 0 0 0 0 0 0 0 0 0 0 0 0 0 0 0 0 0 0 0 0 0 0 0 0 0 0 0 0 0 0 0 0 0 0 0
Wind_Speed_500mb
52 57 60 60 59 61 71 67 63 55 48 55 58 50 63 50 58 58 73 65 64 46 51 38 30 29 20 16 13 14 8 15 11 11 4 16 20 12 14 14 13 18 6 14 47
51 57 61 61 64 65 62 86 89 57 59 58 59 50 55 59 54 72 74 69 63 45 54 49 35 34 19 15 10 9 10 15 8 8 3 12 21 23 14 16 14 18 19 20 51
52 52 59 60 61 63 64 64 86 83 70 60 61 50 69 68 49 65 83 66 54 47 46 50 37 26 20 22 15 11 12 10 9 11 8 6 14 19 16 16 29 35 32 31 52
54 54 55 58 64 64 70 68 85 89 69 65 66 72 72 64 20 28 80 73 63 64 48 50 45 27 19 22 19 17 11 11 14 10 9 9 8 14 29 18 15 22 33 37 53
60 58 54 57 59 62 66 68 85 77 68 70 75 82 61 41 46 14 43 79 62 65 65 60 52 36 24 24 19 15 14 15 10 9 7 8 15 16 24 28 14 26 34 40 47
60 61 56 54 59 58 65 67 86 90 75 73 83 84 72 44 50 56 21 76 71 69 60 57 44 31 23 17 29 20 11 12 8 6 9 9 6 11 13 30 27 28 35 40 45
60 55 59 58 54 58 58 71 70 83 76 77 89 88 68 75 45 44 39 65 78 71 62 52 36 40 29 21 14 11 17 4 9 9 9 11 8 18 20 20 27 32 32 36 40
54 56 59 61 56 61 62 67 66 77 79 78 101 90 36 88 81 51 38 61 65 66 58 49 39 30 14 26 11 9 5 9 9 16 12 13 27 25 29 27 32 28 28 33 41
54 54 56 57 56 57 63 70 67 69 79 74 108 71 22 58 64 68 31 52 66 56 53 47 50 19 19 23 9 5 14 24 10 24 9 20 20 16 23 35 31 33 33 35 36
55 52 52 57 51 53 62 69 65 63 76 70 98 48 37 72 83 77 40 67 62 58 52 39 19 16 9 23 17 17 18 13 22 15 13 17 28 8 13 21 26 28 33 35 39
60 50 50 53 55 51 53 57 53 33 83 80 44 82 71 67 81 83 55 64 53 55 15 28 16 26 40 37 17 23 20 24 17 9 15 27 28 31 22 15 25 30 34 37 46
62 59 48 49 53 49 50 66 59 25 34 74 72 83 65 91 39 86 80 34 40 25 20 20 28 38 33 24 18 21 20 22 4 5 11 13 30 31 24 23 31 32 36 42 43
56 59 49 41 47 51 58 84 80 71 16 22 77 67 80 82 53 80 105 49 43 31 37 36 28 32 23 22 26 18 25 15 5 6 6 9 31 31 22 34 36 36 41 36 47
52 54 47 37 45 48 67 83 69 69 9 17 38 33 66 63 26 95 92 63 21 44 31 21 15 33 32 31 29 18 15 8 9 4 14 3 16 21 32 32 26 47 45 55 59
46 54 49 42 31 41 64 65 68 56 10 29 23 53 65 71 58 47 76 25 35 33 20 17 28 36 32 32 25 8 19 14 7 8 7 13 11 10 4 24 29 41 56 73 74
42 50 47 48 51 62 38 55 72 14 18 20 22 26 40 46 45 65 40 27 25 22 8 9 9 27 26 9 23 24 16 11 6 3 16 27 19 19 22 27 35 53 62 74 88
37 43 55 52 36 46 57 56 13 14 8 14 21 32 51 49 32 53 43 32 25 26 30 9 13 7 15 23 12 13 27 8 11 13 14 5 12 29 21 26 28 31 31 36 51
35 38 53 59 53 40 36 17 18 15 12 7 43 49 30 49 36 54 50 37 16 34 37 30 18 21 14 18 24 35 32 11 14 9 5 4 15 9 26 36 26 32 28 30 24
37 41 55 62 47 35 34 19 24 12 22 27 53 49 16 28 24 42 52 54 28 36 29 35 11 7 7 9 34 20 19 10 11 3 3 10 9 21 34 28 21 28 31 38 41
37 27 55 63 32 34 13 18 16 27 35 53 30 31 24 44 36 36 50 48 34 25 12 24 14 7 7 10 5 20 25 12 7 9 10 7 9 16 6 14 9 9 23 35 35
23 9 15 27 41 28 13 14 7 36 43 49 43 39 38 65 49 58 74 21 45 28 9 29 10 12 10 18 28 12 20 9 13 8 6 3 5 10 5 11 18 17 18 17 21
24 8 9 47 15 5 12 13 13 43 47 14 33 37 56 59 40 41 47 24 62 43 27 9 11 18 28 5 4 7 23 28 15 10 4 5 11 3 6 3 15 20 13 9 8
18 11 19 62 18 13 13 11 5 45 49 28 26 20 45 41 21 27 22 15 71 38 33 17 8 15 12 5 2 24 11 37 14 4 16 13 9 4 10 12 5 12 9 6 11
15 7 14 55 21 32 30 17 10 61 29 20 33 38 47 38 24 23 26 19 58 49 30 20 7 10 23 16 18 16 19 24 25 13 12 34 22 5 6 3 2 3 2 6 12
17 9 10 9 29 33 43 34 17 27 4 17 28 51 59 38 20 24 29 17 20 38 14 11 8 5 8 10 22 17 36 34 39 53 29 36 37 31 18 15 4 3 2 7 14
18 10 12 6 16 41 50 36 43 35 30 23 46 53 53 43 42 50 37 34 32 23 31 11 19 6 5 4 12 10 31 45 49 41 53 33 18 7 37 31 24 22 23 19 14
21 22 5 6 12 37 40 43 58 54 23 31 57 56 51 42 20 36 43 37 30 34 38 13 13 7 10 5 10 9 40 41 41 46 40 44 23 16 14 16 35 39 35 43 43
Wind_Direction_500mb
239 241 241 245 250 250 242 235 247 245 243 245 233 235 217 199 203 206 206 205 205 204 202 205 199 187 180 175 170 155 203 216 208 197 164 159 177 176 192 155 175 192 179 183 184
244 241 237 240 245 250 260 241 239 250 240 242 239 241 221 209 216 214 205 206 204 205 199 197 188 188 166 158 170 175 216 212 186 188 138 190 196 168 181 174 193 195 190 177 185
250 244 241 239 244 246 256 253 234 245 239 235 238 227 216 206 221 226 202 205 203 198 195 192 183 169 163 164 175 176 212 171 194 210 183 176 213 177 195 205 211 203 190 184 187
246 246 244 241 243 246 245 254 236 241 233 229 224 209 208 197 214 222 209 207 202 201 185 183 177 175 165 174 172 182 197 169 161 168 154 182 166 212 210 222 224 204 199 198 192
241 243 241 241 244 246 247 255 234 243 245 224 224 210 207 201 230 206 197 206 201 197 193 183 178 181 178 180 161 206 169 182 188 194 193 182 216 225 236 228 221 199 198 204 199
243 239 237 242 243 244 242 248 231 239 252 220 225 206 195 220 236 227 224 196 199 191 187 186 191 187 180 189 197 183 177 156 165 219 202 205 201 195 242 216 217 203 204 203 205
242 243 238 243 241 238 237 239 235 239 242 213 216 206 201 220 228 230 225 203 196 196 181 185 180 172 157 148 141 142 189 148 193 201 235 205 204 225 221 207 201 208 206 205 205
239 238 237 239 243 238 240 240 236 231 234 203 202 183 190 210 234 249 211 193 197 194 186 181 170 160 150 131 99 149 122 169 197 179 220 207 248 241 206 202 201 208 213 213 214
230 232 234 236 237 239 236 236 239 236 235 199 192 194 182 191 202 211 207 203 177 171 175 171 168 148 140 142 121 316 191 206 173 198 172 213 245 250 200 204 199 204 214 217 216
225 228 229 230 231 240 231 240 238 229 236 208 195 168 171 184 189 187 197 202 183 166 147 154 158 154 146 178 179 177 211 199 213 181 199 207 240 219 214 222 220 211 212 215 219
220 226 227 233 231 236 224 230 221 216 234 196 177 188 179 172 177 175 186 188 175 167 157 172 152 186 171 187 190 192 199 214 221 176 211 222 237 240 211 219 220 218 215 217 225
217 227 230 234 233 232 224 231 214 184 216 210 200 190 173 169 147 169 170 184 166 172 142 154 199 181 181 159 139 171 184 203 159 128 236 232 245 245 229 232 227 226 222 224 227
219 224 233 232 232 234 237 226 223 218 201 212 181 171 157 169 158 161 166 178 179 160 185 171 168 169 163 165 166 179 190 175 214 138 227 286 265 248 234 232 235 238 239 237 237
213 217 226 229 236 241 235 226 217 217 188 186 176 188 161 167 157 166 174 157 167 172 157 180 139 160 177 179 185 189 203 155 150 207 244 245 268 225 236 229 217 232 232 240 241
208 214 220 222 219 224 239 222 222 211 228 155 160 164 167 159 140 180 170 171 165 162 171 156 160 166 178 185 179 184 146 153 131 220 272 206 257 243 241 237 230 228 231 239 243
210 210 218 227 231 227 227 220 190 208 210 166 133 166 167 149 169 158 177 166 132 133 163 96 128 177 187 136 175 141 110 84 98 193 251 237 233 252 223 225 234 229 224 227 236
205 213 219 224 230 229 222 204 171 236 142 162 142 151 173 153 146 168 174 152 156 142 182 143 159 138 138 136 132 176 158 161 216 218 243 90 239 258 240 243 239 248 241 242 237
207 210 227 230 227 203 223 209 209 159 165 143 152 148 170 145 158 179 173 173 175 166 160 181 191 178 170 181 164 183 185 178 194 209 223 75 237 240 249 262 248 251 254 250 244
207 214 234 235 235 240 235 243 199 185 148 142 146 151 141 141 139 166 186 184 171 168 159 182 159 147 149 155 159 178 203 149 106 46 274 211 259 270 266 264 254 251 254 257 247
213 230 243 240 240 219 232 240 183 173 149 149 151 156 145 166 136 158 189 198 182 189 141 169 133 202 159 123 140 199 146 175 212 193 228 201 264 247 247 262 287 248 249 246 244
187 228 264 222 194 188 229 201 235 164 163 163 159 158 169 171 160 178 187 184 182 176 145 157 118 159 166 205 174 156 187 182 181 205 213 264 231 239 293 277 290 289 290 231 222
160 226 246 179 175 168 210 172 258 174 181 159 173 164 170 171 163 176 183 186 177 167 168 153 109 150 188 42 330 188 186 193 200 198 253 92 268 182 228 267 309 315 315 236 200
178 207 259 183 180 179 181 200 238 183 171 164 157 189 155 166 142 182 162 186 166 174 170 169 112 115 153 202 237 207 198 198 207 64 193 192 212 72 242 272 292 298 318 210 195
161 186 215 204 231 179 177 174 201 200 168 174 156 139 155 166 129 170 143 174 175 173 170 127 144 159 191 199 130 187 190 185 195 219 174 235 230 280 239 205 198 275 311 194 192
177 223 220 210 203 195 179 172 170 190 237 151 150 162 165 163 139 162 145 129 166 158 135 123 121 81 58 148 159 178 188 182 198 219 206 246 223 218 219 201 213 348 228 178 181
160 180 201 264 206 192 180 186 170 190 171 173 165 167 165 168 187 170 158 159 171 180 170 139 182 128 44 58 164 156 189 199 213 220 233 245 251 261 257 253 237 255 243 238 236
220 229 211 253 188 182 188 175 185 185 216 189 165 160 174 183 147 142 166 141 134 167 180 136 126 131 162 68 90 275 207 205 216 224 228 233 230 186 226 259 275 281 254 260 280
Wind_Speed_850mb
52 57 60 60 59 61 71 67 63 55 48 55 58 50 63 50 58 58 73 65 64 46 51 38 30 29 20 16 13 14 8 15 11 11 4 16 20 12 14 14 13 18 6 14 47
51 57 61 61 64 65 62 86 89 57 59 58 59 50 55 59 54 72 74 69 63 45 54 49 35 34 19 15 10 9 10 15 8 8 3 12 21 23 14 16 14 18 19 20 51
52 52 59 60 61 63 64 64 86 83 70 60 61 50 69 68 49 65 83 66 54 47 46 50 37 26 20 22 15 11 12 10 9 11 8 6 14 19 16 16 29 35 32 31 52
54 54 55 58 64 64 70 68 85 89 69 65 66 72 72 64 20 28 80 73 63 64 48 50 45 27 19 22 19 17 11 11 14 10 9 9 8 14 29 18 15 22 33 37 53
60 58 54 57 59 62 66 68 85 77 68 70 75 82 61 41 46 14 43 79 62 65 65 60 52 36 24 24 19 15 14 15 10 9 7 8 15 16 24 28 14 26 34 40 47
60 61 56 54 59 58 65 67 86 90 75 73 83 84 72 44 50 56 21 76 71 69 60 57 44 31 23 17 29 20 11 12 8 6 9 9 6 11 13 30 27 28 35 40 45
60 55 59 58 54 58 58 71 70 83 76 77 89 88 68 75 45 44 39 65 78 71 62 52 36 40 29 21 14 11 17 4 9 9 9 11 8 18 20 20 27 32 32 36 40
54 56 59 61 56 61 62 67 66 77 79 78 101 90 36 88 81 51 38 61 65 66 58 49 39 30 14 26 11 9 5 9 9 16 12 13 27 25 29 27 32 28 28 33 41
54 54 56 57 56 57 63 70 67 69 79 74 108 71 22 58 64 68 31 52 66 56 53 47 50 19 19 23 9 5 14 24 10 24 9 20 20 16 23 35 31 33 33 35 36
55 52 52 57 51 53 62 69 65 63 76 70 98 48 37 72 83 77 40 67 62 58 52 39 19 16 9 23 17 17 18 13 22 15 13 17 28 8 13 21 26 28 33 35 39
60 50 50 53 55 51 53 57 53 33 83 80 44 82 71 67 81 83 55 64 53 55 15 28 16 26 40 37 17 23 20 24 17 9 15 27 28 31 22 15 25 30 34 37 46
62 59 48 49 53 49 50 66 59 25 34 74 72 83 65 91 39 86 80 34 40 25 20 20 28 38 33 24 18 21 20 22 4 5 11 13 30 31 24 23 31 32 36 42 43
56 59 49 41 47 51 58 84 80 71 16 22 77 67 80 82 53 80 105 49 43 31 37 36 28 32 23 22 26 18 25 15 5 6 6 9 31 31 22 34 36 36 41 36 47
52 54 47 37 45 48 67 83 69 69 9 17 38 33 66 63 26 95 92 63 21 44 31 21 15 33 32 31 29 18 15 8 9 4 14 3 16 21 32 32 26 47 45 55 59
46 54 49 42 31 41 64 65 68 56 10 29 23 53 65 71 58 47 76 25 35 33 20 17 28 36 32 32 25 8 19 14 7 8 7 13 11 10 4 24 29 41 56 73 74
42 50 47 48 51 62 38 55 72 14 18 20 22 26 40 46 45 65 40 27 25 22 8 9 9 27 26 9 23 24 16 11 6 3 16 27 19 19 22 27 35 53 62 74 88
37 43 55 52 36 46 57 56 13 14 8 14 21 32 51 49 32 53 43 32 25 26 30 9 13 7 15 23 12 13 27 8 11 13 14 5 12 29 21 26 28 31 31 36 51
35 38 53 59 53 40 36 17 18 15 12 7 43 49 30 49 36 54 50 37 16 34 37 30 18 21 14 18 24 35 32 11 14 9 5 4 15 9 26 36 26 32 28 30 24
37 41 55 62 47 35 34 19 24 12 22 27 53 49 16 28 24 42 52 54 28 36 29 35 11 7 7 9 34 20 19 10 11 3 3 10 9 21 34 28 21 28 31 38 41
37 27 55 63 32 34 13 18 16 27 35 53 30 31 24 44 36 36 50 48 34 25 12 24 14 7 7 10 5 20 25 12 7 9 10 7 9 16 6 14 9 9 23 35 35
23 9 15 27 41 28 13 14 7 36 43 49 43 39 38 65 49 58 74 21 45 28 9 29 10 12 10 18 28 12 20 9 13 8 6 3 5 10 5 11 18 17 18 17 21
24 8 9 47 15 5 12 13 13 43 47 14 33 37 56 59 40 41 47 24 62 43 27 9 11 18 28 5 4 7 23 28 15 10 4 5 11 3 6 3 15 20 13 9 8
18 11 19 62 18 13 13 11 5 45 49 28 26 20 45 41 21 27 22 15 71 38 33 17 8 15 12 5 2 24 11 37 14 4 16 13 9 4 10 12 5 12 9 6 11
15 7 14 55 21 32 30 17 10 61 29 20 33 38 47 38 24 23 26 19 58 49 30 20 7 10 23 16 18 16 19 24 25 13 12 34 22 5 6 3 2 3 2 6 12
17 9 10 9 29 33 43 34 17 27 4 17 28 51 59 38 20 24 29 17 20 38 14 11 8 5 8 10 22 17 36 34 39 53 29 36 37 31 18 15 4 3 2 7 14
18 10 12 6 16 41 50 36 43 35 30 23 46 53 53 43 42 50 37 34 32 23 31 11 19 6 5 4 12 10 31 45 49 41 53 33 18 7 37 31 24 22 23 19 14
21 22 5 6 12 37 40 43 58 54 23 31 57 56 51 42 20 36 43 37 30 34 38 13 13 7 10 5 10 9 40 41 41 46 40 44 23 16 14 16 35 39 35 43 43
Wind_Direction_850mb
239 241 241 245 250 250 242 235 247 245 243 245 233 235 217 199 203 206 206 205 205 204 202 205 199 187 180 175 170 155 203 216 208 197 164 159 177 176 192 155 175 192 179 183 184
244 241 237 240 245 250 260 241 239 250 240 242 239 241 221 209 216 214 205 206 204 205 199 197 188 188 166 158 170 175 216 212 186 188 138 190 196 168 181 174 193 195 190 177 185
250 244 241 239 244 246 256 253 234 245 239 235 238 227 216 206 221 226 202 205 203 198 195 192 183 169 163 164 175 176 212 171 194 210 183 176 213 177 195 205 211 203 190 184 187
246 246 244 241 243 246 245 254 236 241 233 229 224 209 208 197 214 222 209 207 202 201 185 183 177 175 165 174 172 182 197 169 161 168 154 182 166 212 210 222 224 204 199 198 192
241 243 241 241 244 246 247 255 234 243 245 224 224 210 207 201 230 206 197 206 201 197 193 183 178 181 178 180 161 206 169 182 188 194 193 182 216 225 236 228 221 199 198 204 199
243 239 237 242 243 244 242 248 231 239 252 220 225 206 195 220 236 227 224 196 199 191 187 186 191 187 180 189 197 183 177 156 165 219 202 205 201 195 242 216 217 203 204 203 205
242 243 238 243 241 238 237 239 235 239 242 213 216 206 201 220 228 230 225 203 196 196 181 185 180 172 157 148 141 142 189 148 193 201 235 205 204 225 221 207 201 208 206 205 205
239 238 237 239 243 238 240 240 236 231 234 203 202 183 190 210 234 249 211 193 197 194 186 181 170 160 150 131 99 149 122 169 197 179 220 207 248 241 206 202 201 208 213 213 214
230 232 234 236 237 239 236 236 239 236 235 199 192 194 182 191 202 211 207 203 177 171 175 171 168 148 140 142 121 316 191 206 173 198 172 213 245 250 200 204 199 204 214 217 216
225 228 229 230 231 240 231 240 238 229 236 208 195 168 171 184 189 187 197 202 183 166 147 154 158 154 146 178 179 177 211 199 213 181 199 207 240 219 214 222 220 211 212 215 219
220 226 227 233 231 236 224 230 221 216 234 196 177 188 179 172 177 175 186 188 175 167 157 172 152 186 171 187 190 192 199 214 221 176 211 222 237 240 211 219 220 218 215 217 225
217 227 230 234 233 232 224 231 214 184 216 210 200 190 173 169 147 169 170 184 166 172 142 154 199 181 181 159 139 171 184 203 159 128 236 232 245 245 229 232 227 226 222 224 227
219 224 233 232 232 234 237 226 223 218 201 212 181 171 157 169 158 161 166 178 179 160 185 171 168 169 163 165 166 179 190 175 214 138 227 286 265 248 234 232 235 238 239 237 237
213 217 226 229 236 241 235 226 217 217 188 186 176 188 161 167 157 166 174 157 167 172 157 180 139 160 177 179 185 189 203 155 150 207 244 245 268 225 236 229 217 232 232 240 241
208 214 220 222 219 224 239 222 222 211 228 155 160 164 167 159 140 180 170 171 165 162 171 156 160 166 178 185 179 184 146 153 131 220 272 206 257 243 241 237 230 228 231 239 243
210 210 218 227 231 227 227 220 190 208 210 166 133 166 167 149 169 158 177 166 132 133 163 96 128 177 187 136 175 141 110 84 98 193 251 237 233 252 223 225 234 229 224 227 236
205 213 219 224 230 229 222 204 171 236 142 162 142 151 173 153 146 168 174 152 156 142 182 143 159 138 138 136 132 176 158 161 216 218 243 90 239 258 240 243 239 248 241 242 237
207 210 227 230 227 203 223 209 209 159 165 143 152 148 170 145 158 179 173 173 175 166 160 181 191 178 170 181 164 183 185 178 194 209 223 75 237 240 249 262 248 251 254 250 244
207 214 234 235 235 240 235 243 199 185 148 142 146 151 141 141 139 166 186 184 171 168 159 182 159 147 149 155 159 178 203 149 106 46 274 211 259 270 266 264 254 251 254 257 247
213 230 243 240 240 219 232 240 183 173 149 149 151 156 145 166 136 158 189 198 182 189 141 169 133 202 159 123 140 199 146 175 212 193 228 201 264 247 247 262 287 248 249 246 244
187 228 264 222 194 188 229 201 235 164 163 163 159 158 169 171 160 178 187 184 182 176 145 157 118 159 166 205 174 156 187 182 181 205 213 264 231 239 293 277 290 289 290 231 222
160 226 246 179 175 168 210 172 258 174 181 159 173 164 170 171 163 176 183 186 177 167 168 153 109 150 188 42 330 188 186 193 200 198 253 92 268 182 228 267 309 315 315 236 200
178 207 259 183 180 179 181 200 238 183 171 164 157 189 155 166 142 182 162 186 166 174 170 169 112 115 153 202 237 207 198 198 207 64 193 192 212 72 242 272 292 298 318 210 195
161 186 215 204 231 179 177 174 201 200 168 174 156 139 155 166 129 170 143 174 175 173 170 127 144 159 191 199 130 187 190 185 195 219 174 235 230 280 239 205 198 275 311 194 192
177 223 220 210 203 195 179 172 170 190 237 151 150 162 165 163 139 162 145 129 166 158 135 123 121 81 58 148 159 178 188 182 198 219 206 246 223 218 219 201 213 348 228 178 181
160 180 201 264 206 192 180 186 170 190 171 173 165 167 165 168 187 170 158 159 171 180 170 139 182 128 44 58 164 156 189 199 213 220 233 245 251 261 257 253 237 255 243 238 236
220 229 211 253 188 182 188 175 185 185 216 189 165 160 174 183 147 142 166 141 134 167 180 136 126 131 162 68 90 275 207 205 216 224 228 233 230 186 226 259 275 281 254 260 280